"SCET","ELECTRON CYCLOTRON FREQUENCY","MEASURED FREQUENCY VALUE","ELECTRON NUMBER DENSITY","JOVIGRAPHIC DISTANCE","SYS_III_LONGITUDE","JOVIGRAPHIC MAGNETIC LATITUDE","JSE X","JSE Y","JSE Z","MAGNETIC FIELD CHECK","DATA QUALITY INDEX","MEASURED FREQUENCY","ELECTRON PLASMA FREQUENCY","L=0 FREQUENCY","R=0 FREQUENCY","UPPER HYBRID FREQUENCY","FULL-WIDTH AT HALF-MAXIMUM"
,"[Hz]","[Hz]","[cm-3]","[Rj where 1Rj=71492km]","[Degrees]","[Degrees]","[Rj where 1Rj=71492km]","[Rj where 1Rj=71492km]","[Rj where 1Rj=71492km]","[1 if Yes, 0 if No]",,,"[Hz]","[Hz]","[Hz]","[Hz]","[Hz or -1 Floater]"
1979-069T01:09:32.500,150.681,540.000,3.616e-03,80.225,122.138,6.588,-39.093,-69.970,3.447,1,0," p",540.000,469.890,620.571,560.629,
1979-069T01:09:33.500,150.594,540.000,3.616e-03,80.225,122.148,6.589,-39.093,-69.971,3.447,1,0," p",540.000,469.927,620.521,560.606,
1979-069T01:09:34.500,150.581,540.000,3.616e-03,80.225,122.158,6.591,-39.093,-69.971,3.447,1,0," p",540.000,469.933,620.514,560.602,
1979-069T01:09:35.500,150.625,540.000,3.616e-03,80.225,122.168,6.592,-39.093,-69.971,3.447,1,0," p",540.000,469.914,620.539,560.614,
1979-069T01:09:36.500,150.602,558.000,3.861e-03,80.225,122.178,6.594,-39.093,-69.971,3.447,1,0," p",558.000,487.757,638.359,577.966,
1979-069T01:09:37.500,150.544,540.000,3.616e-03,80.226,122.188,6.596,-39.093,-69.971,3.447,1,0," p",540.000,469.949,620.493,560.592,
1979-069T01:09:40.500,151.260,522.000,3.379e-03,80.226,122.218,6.601,-39.094,-69.972,3.447,1,0," p",522.000,451.820,603.080,543.474,
1979-069T01:09:41.500,151.609,540.000,3.616e-03,80.226,122.228,6.602,-39.094,-69.972,3.447,1,0," p",540.000,469.490,621.099,560.879,
1979-069T01:09:42.500,151.233,540.000,3.616e-03,80.226,122.239,6.604,-39.094,-69.972,3.447,1,0," p",540.000,469.652,620.885,560.778,
1979-069T01:09:43.500,150.766,540.000,3.616e-03,80.227,122.249,6.606,-39.094,-69.972,3.447,1,0," p",540.000,469.853,620.619,560.652,
1979-069T01:09:44.500,150.370,540.000,3.616e-03,80.227,122.259,6.607,-39.094,-69.972,3.447,1,0," p",540.000,470.024,620.394,560.545,
1979-069T01:09:45.500,149.997,540.000,3.616e-03,80.227,122.269,6.609,-39.094,-69.973,3.447,1,0," p",540.000,470.185,620.182,560.445,
1979-069T01:09:46.500,150.027,540.000,3.616e-03,80.227,122.279,6.611,-39.094,-69.973,3.447,1,0," p",540.000,470.172,620.199,560.453,
1979-069T01:09:47.500,150.069,540.000,3.616e-03,80.227,122.289,6.612,-39.094,-69.973,3.447,1,0," p",540.000,470.154,620.223,560.465,
1979-069T01:09:48.500,150.200,540.000,3.616e-03,80.227,122.299,6.614,-39.094,-69.973,3.447,1,0," p",540.000,470.097,620.297,560.500,
1979-069T01:09:49.500,150.322,540.000,3.616e-03,80.228,122.309,6.616,-39.094,-69.973,3.447,1,0," p",540.000,470.045,620.367,560.533,
1979-069T01:09:50.500,150.410,540.000,3.616e-03,80.228,122.319,6.617,-39.094,-69.973,3.447,1,0," p",540.000,470.007,620.417,560.556,
1979-069T01:09:51.500,150.459,540.000,3.616e-03,80.228,122.329,6.619,-39.094,-69.974,3.447,1,0," p",540.000,469.986,620.445,560.569,
1979-069T01:09:52.500,150.416,540.000,3.616e-03,80.228,122.339,6.621,-39.094,-69.974,3.447,1,0," p",540.000,470.004,620.420,560.558,
1979-069T01:09:53.500,150.399,540.000,3.616e-03,80.228,122.349,6.622,-39.094,-69.974,3.447,1,0," p",540.000,470.011,620.410,560.553,
1979-069T01:09:54.500,150.428,540.000,3.616e-03,80.229,122.359,6.624,-39.094,-69.974,3.447,1,0," p",540.000,469.999,620.427,560.561,
1979-069T01:09:55.500,150.418,540.000,3.616e-03,80.229,122.369,6.626,-39.095,-69.974,3.447,1,0," p",540.000,470.003,620.421,560.558,
1979-069T01:09:56.500,150.359,540.000,3.616e-03,80.229,122.379,6.627,-39.095,-69.974,3.447,1,0," p",540.000,470.029,620.388,560.542,
1979-069T01:09:57.500,150.270,540.000,3.616e-03,80.229,122.389,6.629,-39.095,-69.975,3.447,1,0," p",540.000,470.067,620.337,560.519,
1979-069T01:09:58.500,150.154,540.000,3.616e-03,80.229,122.399,6.630,-39.095,-69.975,3.447,1,0," p",540.000,470.117,620.271,560.487,
1979-069T01:09:59.500,150.179,522.000,3.379e-03,80.229,122.409,6.632,-39.095,-69.975,3.447,1,0," p",522.000,452.284,602.463,543.174,
1979-069T01:10:00.500,150.296,522.000,3.379e-03,80.230,122.420,6.634,-39.095,-69.975,3.447,1,0," p",522.000,452.233,602.529,543.206,
1979-069T01:10:01.500,150.704,522.000,3.379e-03,80.230,122.430,6.635,-39.095,-69.975,3.447,1,0," p",522.000,452.059,602.763,543.319,
1979-069T01:10:03.500,151.447,540.000,3.616e-03,80.230,122.450,6.639,-39.095,-69.975,3.447,1,0," p",540.000,469.560,621.007,560.835,
1979-069T01:10:04.500,151.549,522.000,3.379e-03,80.230,122.460,6.640,-39.095,-69.976,3.447,1,0," p",522.000,451.697,603.246,543.554,
1979-069T01:10:05.500,151.638,522.000,3.379e-03,80.230,122.470,6.642,-39.095,-69.976,3.447,1,0," p",522.000,451.659,603.297,543.579,
1979-069T01:10:06.500,151.726,522.000,3.379e-03,80.231,122.480,6.644,-39.095,-69.976,3.447,1,0," p",522.000,451.621,603.347,543.604,
1979-069T01:10:07.500,151.596,522.000,3.379e-03,80.231,122.490,6.645,-39.095,-69.976,3.447,1,0," p",522.000,451.676,603.272,543.567,
1979-069T01:10:08.500,151.448,522.000,3.379e-03,80.231,122.500,6.647,-39.095,-69.976,3.447,1,0," p",522.000,451.740,603.188,543.526,
1979-069T01:10:09.500,151.054,522.000,3.379e-03,80.231,122.510,6.649,-39.095,-69.976,3.447,1,0," p",522.000,451.909,602.963,543.416,
1979-069T01:10:10.500,150.689,522.000,3.379e-03,80.231,122.520,6.650,-39.095,-69.977,3.447,1,0," p",522.000,452.065,602.754,543.315,
1979-069T01:10:11.500,150.617,540.000,3.616e-03,80.232,122.530,6.652,-39.096,-69.977,3.447,1,0," p",540.000,469.917,620.534,560.612,
1979-069T01:10:12.500,150.588,522.000,3.379e-03,80.232,122.540,6.654,-39.096,-69.977,3.447,1,0," p",522.000,452.108,602.696,543.287,
1979-069T01:10:13.500,150.778,540.000,3.616e-03,80.232,122.550,6.655,-39.096,-69.977,3.447,1,0," p",540.000,469.848,620.626,560.655,
1979-069T01:10:14.500,150.909,540.000,3.616e-03,80.232,122.560,6.657,-39.096,-69.977,3.447,1,0," p",540.000,469.792,620.701,560.690,
1979-069T01:10:15.500,150.865,522.000,3.379e-03,80.232,122.570,6.659,-39.096,-69.977,3.447,1,0," p",522.000,451.990,602.855,543.364,
1979-069T01:10:16.500,150.985,540.000,3.616e-03,80.232,122.580,6.660,-39.096,-69.978,3.447,1,0," p",540.000,469.759,620.744,560.711,
1979-069T01:10:17.500,151.437,540.000,3.616e-03,80.233,122.591,6.662,-39.096,-69.978,3.447,1,0," p",540.000,469.564,621.001,560.833,
1979-069T01:10:18.500,151.626,522.000,3.379e-03,80.233,122.601,6.664,-39.096,-69.978,3.447,1,0," p",522.000,451.664,603.290,543.576,
1979-069T01:10:19.500,151.437,522.000,3.379e-03,80.233,122.611,6.665,-39.096,-69.978,3.447,1,0," p",522.000,451.745,603.182,543.523,
1979-069T01:10:20.500,151.290,522.000,3.379e-03,80.233,122.621,6.667,-39.096,-69.978,3.447,1,0," p",522.000,451.808,603.098,543.482,
1979-069T01:10:21.500,151.188,522.000,3.379e-03,80.233,122.631,6.668,-39.096,-69.978,3.447,1,0," p",522.000,451.851,603.039,543.454,
1979-069T01:10:22.500,151.169,522.000,3.379e-03,80.233,122.641,6.670,-39.096,-69.979,3.447,1,0," p",522.000,451.859,603.028,543.448,
1979-069T01:10:23.500,151.213,522.000,3.379e-03,80.234,122.651,6.672,-39.096,-69.979,3.447,1,0," p",522.000,451.841,603.054,543.461,
1979-069T01:10:24.500,151.067,522.000,3.379e-03,80.234,122.661,6.673,-39.096,-69.979,3.447,1,0," p",522.000,451.903,602.970,543.420,
1979-069T01:10:25.500,150.819,522.000,3.379e-03,80.234,122.671,6.675,-39.096,-69.979,3.447,1,0," p",522.000,452.009,602.828,543.351,
1979-069T01:10:27.500,150.146,558.000,3.861e-03,80.234,122.691,6.678,-39.097,-69.979,3.447,1,0," p",558.000,487.954,638.100,577.848,
1979-069T01:10:28.500,149.808,540.000,3.616e-03,80.235,122.701,6.680,-39.097,-69.980,3.447,1,0," p",540.000,470.266,620.074,560.395,
1979-069T01:10:29.500,149.473,540.000,3.616e-03,80.235,122.711,6.682,-39.097,-69.980,3.447,1,0," p",540.000,470.411,619.884,560.305,
1979-069T01:10:30.500,149.293,540.000,3.616e-03,80.235,122.721,6.683,-39.097,-69.980,3.447,1,0," p",540.000,470.488,619.781,560.257,
1979-069T01:10:31.500,149.133,540.000,3.616e-03,80.235,122.731,6.685,-39.097,-69.980,3.447,1,0," p",540.000,470.557,619.690,560.215,
1979-069T01:10:32.500,149.595,540.000,3.616e-03,80.235,122.741,6.687,-39.097,-69.980,3.447,1,0," p",540.000,470.358,619.953,560.338,
1979-069T01:10:33.500,150.049,540.000,3.616e-03,80.235,122.751,6.688,-39.097,-69.980,3.447,1,0," p",540.000,470.162,620.211,560.459,
1979-069T01:10:34.500,149.991,522.000,3.379e-03,80.236,122.762,6.690,-39.097,-69.981,3.447,1,0," p",522.000,452.364,602.355,543.122,
1979-069T01:10:35.500,149.874,540.000,3.616e-03,80.236,122.772,6.692,-39.097,-69.981,3.447,1,0," p",540.000,470.238,620.112,560.413,
1979-069T01:10:36.500,149.363,540.000,3.616e-03,80.236,122.782,6.693,-39.097,-69.981,3.448,1,0," p",540.000,470.458,619.821,560.276,
1979-069T01:10:37.500,148.988,540.000,3.616e-03,80.236,122.792,6.695,-39.097,-69.981,3.448,1,0," p",540.000,470.620,619.608,560.176,
1979-069T01:10:38.500,149.119,540.000,3.616e-03,80.236,122.802,6.697,-39.097,-69.981,3.448,1,0," p",540.000,470.564,619.683,560.211,
1979-069T01:10:39.500,149.343,540.000,3.616e-03,80.236,122.812,6.698,-39.097,-69.981,3.448,1,0," p",540.000,470.467,619.810,560.271,
1979-069T01:10:40.500,149.795,540.000,3.616e-03,80.237,122.822,6.700,-39.097,-69.982,3.448,1,0," p",540.000,470.272,620.067,560.391,
1979-069T01:10:41.500,150.102,540.000,3.616e-03,80.237,122.832,6.701,-39.097,-69.982,3.448,1,0," p",540.000,470.139,620.241,560.474,
1979-069T01:10:42.500,150.160,522.000,3.379e-03,80.237,122.842,6.703,-39.098,-69.982,3.448,1,0," p",522.000,452.292,602.452,543.169,
1979-069T01:10:43.500,150.323,540.000,3.616e-03,80.237,122.852,6.705,-39.098,-69.982,3.448,1,0," p",540.000,470.044,620.367,560.533,
1979-069T01:10:44.500,150.615,522.000,3.379e-03,80.237,122.862,6.706,-39.098,-69.982,3.448,1,0," p",522.000,452.097,602.712,543.294,
1979-069T01:10:45.500,150.729,522.000,3.379e-03,80.237,122.872,6.708,-39.098,-69.982,3.448,1,0," p",522.000,452.048,602.777,543.326,
1979-069T01:10:46.500,150.685,522.000,3.379e-03,80.238,122.882,6.710,-39.098,-69.983,3.448,1,0," p",522.000,452.067,602.752,543.314,
1979-069T01:10:47.500,150.597,522.000,3.379e-03,80.238,122.892,6.711,-39.098,-69.983,3.448,1,0," p",522.000,452.104,602.701,543.289,
1979-069T01:10:48.500,150.480,522.000,3.379e-03,80.238,122.902,6.713,-39.098,-69.983,3.448,1,0," p",522.000,452.155,602.635,543.257,
1979-069T01:10:49.500,150.786,540.000,3.616e-03,80.238,122.912,6.715,-39.098,-69.983,3.448,1,0," p",540.000,469.845,620.631,560.657,
1979-069T01:10:52.500,151.757,522.000,3.379e-03,80.239,122.943,6.720,-39.098,-69.984,3.448,1,0," p",522.000,451.608,603.365,543.612,
1979-069T01:10:53.500,152.371,504.000,3.150e-03,80.239,122.953,6.721,-39.098,-69.984,3.448,1,0," p",504.000,433.540,585.911,526.529,
1979-069T01:10:54.500,153.056,504.000,3.150e-03,80.239,122.963,6.723,-39.098,-69.984,3.448,1,0," p",504.000,433.249,586.305,526.728,
1979-069T01:10:55.500,153.497,504.000,3.150e-03,80.239,122.973,6.725,-39.098,-69.984,3.448,1,0," p",504.000,433.062,586.559,526.856,
1979-069T01:10:56.500,153.918,504.000,3.150e-03,80.239,122.983,6.726,-39.098,-69.984,3.448,1,0," p",504.000,432.883,586.801,526.979,
1979-069T01:10:57.500,154.078,504.000,3.150e-03,80.240,122.993,6.728,-39.099,-69.984,3.448,1,0," p",504.000,432.815,586.893,527.026,
1979-069T01:10:58.500,154.234,504.000,3.150e-03,80.240,123.003,6.729,-39.099,-69.985,3.448,1,0," p",504.000,432.749,586.983,527.071,
1979-069T01:10:59.500,154.351,486.000,2.929e-03,80.240,123.013,6.731,-39.099,-69.985,3.448,1,0," p",486.000,414.914,569.265,509.922,
1979-069T01:11:00.500,154.475,486.000,2.929e-03,80.240,123.023,6.733,-39.099,-69.985,3.448,1,0," p",486.000,414.862,569.337,509.959,
1979-069T01:11:01.500,154.636,504.000,3.150e-03,80.240,123.033,6.734,-39.099,-69.985,3.448,1,0," p",504.000,432.578,587.214,527.189,
1979-069T01:11:02.500,154.796,486.000,2.929e-03,80.240,123.043,6.736,-39.099,-69.985,3.448,1,0," p",486.000,414.726,569.522,510.057,
1979-069T01:11:03.500,154.957,486.000,2.929e-03,80.241,123.053,6.738,-39.099,-69.985,3.448,1,0," p",486.000,414.659,569.616,510.106,
1979-069T01:11:04.500,155.155,504.000,3.150e-03,80.241,123.063,6.739,-39.099,-69.986,3.448,1,0," p",504.000,432.358,587.513,527.341,
1979-069T01:11:05.500,155.433,486.000,2.929e-03,80.241,123.073,6.741,-39.099,-69.986,3.448,1,0," p",486.000,414.458,569.891,510.250,
1979-069T01:11:06.500,155.734,486.000,2.929e-03,80.241,123.083,6.743,-39.099,-69.986,3.448,1,0," p",486.000,414.331,570.065,510.342,
1979-069T01:11:07.500,156.069,486.000,2.929e-03,80.241,123.093,6.744,-39.099,-69.986,3.448,1,0," p",486.000,414.190,570.259,510.444,
1979-069T01:11:08.500,156.404,486.000,2.929e-03,80.242,123.103,6.746,-39.099,-69.986,3.448,1,0," p",486.000,414.049,570.453,510.547,
1979-069T01:11:09.500,156.740,486.000,2.929e-03,80.242,123.114,6.748,-39.099,-69.986,3.448,1,0," p",486.000,413.908,570.648,510.650,
1979-069T01:11:10.500,156.801,486.000,2.929e-03,80.242,123.124,6.749,-39.099,-69.986,3.448,1,0," p",486.000,413.883,570.684,510.669,
1979-069T01:11:11.500,156.655,486.000,2.929e-03,80.242,123.134,6.751,-39.099,-69.987,3.448,1,0," p",486.000,413.944,570.599,510.624,
1979-069T01:11:12.500,156.263,504.000,3.150e-03,80.242,123.144,6.753,-39.100,-69.987,3.448,1,0," p",504.000,431.889,588.152,527.669,
1979-069T01:11:13.500,155.738,486.000,2.929e-03,80.242,123.154,6.754,-39.100,-69.987,3.448,1,0," p",486.000,414.330,570.068,510.343,
1979-069T01:11:15.500,157.185,486.000,2.929e-03,80.243,123.174,6.757,-39.100,-69.987,3.448,1,0," p",486.000,413.721,570.906,510.787,
1979-069T01:11:16.500,157.703,486.000,2.929e-03,80.243,123.184,6.759,-39.100,-69.987,3.448,1,0," p",486.000,413.504,571.207,510.946,
1979-069T01:11:17.500,158.125,486.000,2.929e-03,80.243,123.194,6.761,-39.100,-69.988,3.448,1,0," p",486.000,413.326,571.451,511.077,
1979-069T01:11:18.500,158.509,486.000,2.929e-03,80.243,123.204,6.762,-39.100,-69.988,3.448,1,0," p",486.000,413.165,571.674,511.196,
1979-069T01:11:19.500,158.889,486.000,2.929e-03,80.243,123.214,6.764,-39.100,-69.988,3.448,1,0," p",486.000,413.006,571.895,511.314,
1979-069T01:11:20.500,158.872,486.000,2.929e-03,80.244,123.224,6.766,-39.100,-69.988,3.448,1,0," p",486.000,413.013,571.885,511.308,
1979-069T01:11:21.500,158.840,486.000,2.929e-03,80.244,123.234,6.767,-39.100,-69.988,3.448,1,0," p",486.000,413.026,571.866,511.298,
1979-069T01:11:22.500,158.767,486.000,2.929e-03,80.244,123.244,6.769,-39.100,-69.988,3.448,1,0," p",486.000,413.057,571.824,511.276,
1979-069T01:11:23.500,158.725,486.000,2.929e-03,80.244,123.254,6.771,-39.100,-69.989,3.448,1,0," p",486.000,413.075,571.800,511.263,
1979-069T01:11:24.500,158.885,486.000,2.929e-03,80.244,123.264,6.772,-39.100,-69.989,3.448,1,0," p",486.000,413.008,571.893,511.312,
1979-069T01:11:25.500,159.040,486.000,2.929e-03,80.244,123.274,6.774,-39.100,-69.989,3.448,1,0," p",486.000,412.943,571.983,511.361,
1979-069T01:11:26.500,159.171,504.000,3.150e-03,80.245,123.285,6.776,-39.100,-69.989,3.448,1,0," p",504.000,430.659,589.830,528.537,
1979-069T01:11:27.500,159.163,486.000,2.929e-03,80.245,123.295,6.777,-39.100,-69.989,3.448,1,0," p",486.000,412.891,572.054,511.399,
1979-069T01:11:28.500,158.812,486.000,2.929e-03,80.245,123.305,6.779,-39.101,-69.989,3.448,1,0," p",486.000,413.038,571.850,511.290,
1979-069T01:11:29.500,158.549,486.000,2.929e-03,80.245,123.315,6.781,-39.101,-69.990,3.448,1,0," p",486.000,413.149,571.698,511.208,
1979-069T01:11:30.500,158.432,486.000,2.929e-03,80.245,123.325,6.782,-39.101,-69.990,3.448,1,0," p",486.000,413.198,571.630,511.172,
1979-069T01:11:31.500,158.421,504.000,3.150e-03,80.246,123.335,6.784,-39.101,-69.990,3.448,1,0," p",504.000,430.976,589.397,528.312,
1979-069T01:11:32.500,158.537,504.000,3.150e-03,80.246,123.345,6.785,-39.101,-69.990,3.448,1,0," p",504.000,430.927,589.464,528.346,
1979-069T01:11:33.500,158.600,504.000,3.150e-03,80.246,123.355,6.787,-39.101,-69.990,3.448,1,0," p",504.000,430.900,589.500,528.365,
1979-069T01:11:34.500,158.614,504.000,3.150e-03,80.246,123.365,6.789,-39.101,-69.990,3.448,1,0," p",504.000,430.895,589.509,528.370,
1979-069T01:11:37.500,159.204,504.000,3.150e-03,80.247,123.395,6.794,-39.101,-69.991,3.448,1,0," p",504.000,430.645,589.849,528.547,
1979-069T01:11:38.500,159.116,522.000,3.379e-03,80.247,123.405,6.795,-39.101,-69.991,3.448,1,0," p",522.000,448.470,607.586,545.712,
1979-069T01:11:39.500,159.365,522.000,3.379e-03,80.247,123.415,6.797,-39.101,-69.991,3.448,1,0," p",522.000,448.364,607.729,545.785,
1979-069T01:11:40.500,159.715,504.000,3.150e-03,80.247,123.425,6.799,-39.101,-69.991,3.448,1,0," p",504.000,430.430,590.145,528.701,
1979-069T01:11:41.500,159.830,486.000,2.929e-03,80.247,123.435,6.800,-39.101,-69.992,3.448,1,0," p",486.000,412.612,572.442,511.607,
1979-069T01:11:42.500,159.903,486.000,2.929e-03,80.247,123.445,6.802,-39.101,-69.992,3.448,1,0," p",486.000,412.581,572.484,511.630,
1979-069T01:11:43.500,159.949,486.000,2.929e-03,80.248,123.455,6.804,-39.102,-69.992,3.448,1,0," p",486.000,412.562,572.511,511.644,
1979-069T01:11:44.500,159.993,486.000,2.929e-03,80.248,123.466,6.805,-39.102,-69.992,3.448,1,0," p",486.000,412.543,572.536,511.658,
1979-069T01:11:45.500,160.095,486.000,2.929e-03,80.248,123.476,6.807,-39.102,-69.992,3.448,1,0," p",486.000,412.501,572.596,511.690,
1979-069T01:11:46.500,160.216,504.000,3.150e-03,80.248,123.486,6.809,-39.102,-69.992,3.448,1,0," p",504.000,430.219,590.435,528.853,
1979-069T01:11:47.500,160.522,486.000,2.929e-03,80.248,123.496,6.810,-39.102,-69.993,3.448,1,0," p",486.000,412.322,572.844,511.824,
1979-069T01:11:48.500,160.734,486.000,2.929e-03,80.249,123.506,6.812,-39.102,-69.993,3.448,1,0," p",486.000,412.233,572.967,511.890,
1979-069T01:11:49.500,160.486,504.000,3.150e-03,80.249,123.516,6.813,-39.102,-69.993,3.448,1,0," p",504.000,430.105,590.591,528.935,
1979-069T01:11:50.500,160.482,504.000,3.150e-03,80.249,123.526,6.815,-39.102,-69.993,3.448,1,0," p",504.000,430.107,590.589,528.933,
1979-069T01:11:51.500,161.211,486.000,2.929e-03,80.249,123.536,6.817,-39.102,-69.993,3.448,1,0," p",486.000,412.034,573.245,512.040,
1979-069T01:11:52.500,161.820,486.000,2.929e-03,80.249,123.546,6.818,-39.102,-69.993,3.448,1,0," p",486.000,411.779,573.599,512.232,
1979-069T01:11:53.500,162.185,486.000,2.929e-03,80.249,123.556,6.820,-39.102,-69.994,3.448,1,0," p",486.000,411.626,573.811,512.348,
1979-069T01:11:54.500,162.394,486.000,2.929e-03,80.250,123.566,6.822,-39.102,-69.994,3.448,1,0," p",486.000,411.539,573.933,512.414,
1979-069T01:11:55.500,162.379,486.000,2.929e-03,80.250,123.576,6.823,-39.102,-69.994,3.448,1,0," p",486.000,411.545,573.924,512.409,
1979-069T01:11:56.500,162.594,486.000,2.929e-03,80.250,123.586,6.825,-39.102,-69.994,3.448,1,0," p",486.000,411.456,574.050,512.477,
1979-069T01:11:57.500,163.046,486.000,2.929e-03,80.250,123.596,6.827,-39.102,-69.994,3.448,1,0," p",486.000,411.267,574.313,512.621,
1979-069T01:11:58.500,163.365,486.000,2.929e-03,80.250,123.606,6.828,-39.102,-69.994,3.448,1,0," p",486.000,411.134,574.499,512.722,
1979-069T01:11:59.500,163.583,468.000,2.716e-03,80.250,123.616,6.830,-39.103,-69.995,3.448,1,0," p",468.000,393.302,556.885,495.765,
1979-069T01:12:00.500,163.669,486.000,2.929e-03,80.251,123.626,6.832,-39.103,-69.995,3.448,1,0," p",486.000,411.007,574.676,512.819,
1979-069T01:12:01.500,163.684,504.000,3.150e-03,80.251,123.637,6.833,-39.103,-69.995,3.448,1,0," p",504.000,428.760,592.444,529.914,
1979-069T01:12:04.500,163.409,486.000,2.929e-03,80.251,123.667,6.838,-39.103,-69.995,3.448,1,0," p",486.000,411.116,574.525,512.736,
1979-069T01:12:05.500,163.030,486.000,2.929e-03,80.252,123.677,6.840,-39.103,-69.996,3.448,1,0," p",486.000,411.274,574.304,512.616,
1979-069T01:12:06.500,162.884,486.000,2.929e-03,80.252,123.687,6.841,-39.103,-69.996,3.448,1,0," p",486.000,411.335,574.219,512.569,
1979-069T01:12:07.500,162.768,486.000,2.929e-03,80.252,123.697,6.843,-39.103,-69.996,3.448,1,0," p",486.000,411.383,574.151,512.532,
1979-069T01:12:08.500,162.920,486.000,2.929e-03,80.252,123.707,6.845,-39.103,-69.996,3.448,1,0," p",486.000,411.320,574.240,512.581,
1979-069T01:12:09.500,163.057,486.000,2.929e-03,80.252,123.717,6.846,-39.103,-69.996,3.448,1,0," p",486.000,411.262,574.319,512.624,
1979-069T01:12:10.500,162.766,486.000,2.929e-03,80.252,123.727,6.848,-39.103,-69.996,3.448,1,0," p",486.000,411.384,574.150,512.532,
1979-069T01:12:11.500,162.529,486.000,2.929e-03,80.253,123.737,6.850,-39.103,-69.997,3.448,1,0," p",486.000,411.483,574.012,512.457,
1979-069T01:12:12.500,162.660,486.000,2.929e-03,80.253,123.747,6.851,-39.103,-69.997,3.448,1,0," p",486.000,411.428,574.088,512.498,
1979-069T01:12:13.500,162.822,486.000,2.929e-03,80.253,123.757,6.853,-39.103,-69.997,3.448,1,0," p",486.000,411.361,574.182,512.549,
1979-069T01:12:14.500,163.099,486.000,2.929e-03,80.253,123.767,6.855,-39.104,-69.997,3.448,1,0," p",486.000,411.245,574.344,512.638,
1979-069T01:12:15.500,163.288,486.000,2.929e-03,80.253,123.777,6.856,-39.104,-69.997,3.448,1,0," p",486.000,411.166,574.454,512.698,
1979-069T01:12:16.500,163.258,486.000,2.929e-03,80.253,123.787,6.858,-39.104,-69.997,3.448,1,0," p",486.000,411.179,574.437,512.688,
1979-069T01:12:17.500,163.256,486.000,2.929e-03,80.254,123.797,6.860,-39.104,-69.998,3.448,1,0," p",486.000,411.179,574.435,512.688,
1979-069T01:12:18.500,163.300,486.000,2.929e-03,80.254,123.807,6.861,-39.104,-69.998,3.448,1,0," p",486.000,411.161,574.461,512.702,
1979-069T01:12:19.500,163.409,486.000,2.929e-03,80.254,123.818,6.863,-39.104,-69.998,3.448,1,0," p",486.000,411.116,574.525,512.736,
1979-069T01:12:20.500,163.599,486.000,2.929e-03,80.254,123.828,6.864,-39.104,-69.998,3.448,1,0," p",486.000,411.036,574.635,512.797,
1979-069T01:12:21.500,163.711,486.000,2.929e-03,80.254,123.838,6.866,-39.104,-69.998,3.448,1,0," p",486.000,410.990,574.701,512.833,
1979-069T01:12:22.500,163.755,504.000,3.150e-03,80.254,123.848,6.868,-39.104,-69.998,3.448,1,0," p",504.000,428.730,592.485,529.936,
1979-069T01:12:23.500,163.719,468.000,2.716e-03,80.255,123.858,6.869,-39.104,-69.998,3.448,1,0," p",468.000,393.246,556.965,495.810,
1979-069T01:12:24.500,163.631,486.000,2.929e-03,80.255,123.868,6.871,-39.104,-69.999,3.448,1,0," p",486.000,411.023,574.654,512.807,
1979-069T01:12:25.500,163.634,468.000,2.716e-03,80.255,123.878,6.873,-39.104,-69.999,3.448,1,0," p",468.000,393.281,556.915,495.782,
1979-069T01:12:26.500,163.678,486.000,2.929e-03,80.255,123.888,6.874,-39.104,-69.999,3.448,1,0," p",486.000,411.003,574.681,512.822,
1979-069T01:12:27.500,163.969,468.000,2.716e-03,80.255,123.898,6.876,-39.104,-69.999,3.448,1,0," p",468.000,393.142,557.111,495.893,
1979-069T01:12:28.500,164.333,468.000,2.716e-03,80.256,123.908,6.878,-39.104,-69.999,3.448,1,0," p",468.000,392.992,557.325,496.013,
1979-069T01:12:29.500,164.698,468.000,2.716e-03,80.256,123.918,6.879,-39.105,-69.999,3.448,1,0," p",468.000,392.841,557.539,496.134,
1979-069T01:28:00.500,,522.000,3.379e-03,80.419,133.282,8.377,-39.165,-70.152,3.456,0,0," p",522.000,,,,
1979-069T01:28:01.500,,522.000,3.379e-03,80.419,133.292,8.378,-39.165,-70.153,3.456,0,0," p",522.000,,,,
1979-069T01:28:04.500,,522.000,3.379e-03,80.420,133.322,8.383,-39.165,-70.153,3.456,0,0," p",522.000,,,,
1979-069T01:28:05.500,,522.000,3.379e-03,80.420,133.332,8.385,-39.165,-70.153,3.456,0,0," p",522.000,,,,
1979-069T01:28:06.500,174.418,504.000,3.150e-03,80.420,133.342,8.386,-39.165,-70.153,3.456,1,0," p",504.000,424.280,598.698,533.327,
1979-069T01:28:07.500,181.535,504.000,3.150e-03,80.420,133.352,8.388,-39.165,-70.154,3.456,1,0," p",504.000,421.341,602.876,535.697,
1979-069T01:28:08.500,173.812,522.000,3.379e-03,80.420,133.362,8.389,-39.166,-70.154,3.456,1,0," p",522.000,442.279,616.091,550.177,
1979-069T01:28:09.500,,504.000,3.150e-03,80.421,133.372,8.391,-39.166,-70.154,3.456,0,0," p",504.000,,,,